STARLINK-32596 (62316 NORAD) Tracking and Keplerian Element Data

This shows tracking and keplerian element data for the satellite.

Feedback or suggestion? Click here.




ElementValue
Catalog62316
NameSTARLINK-32596
Epoch Orbit826
Epoch Day34.8732383
Epoch Year2025
RAAN250.6202
Inclination53.158
Eccentricity0.0001786
Argument of Perigee87.3398
Mean Anonmoly272.7811
Mean Motion15.39614274
Decay Rate1.99E-05
L11 62316U 24239R 25034.87323830 .00001990 00000+0 59744-4 0 9997
L22 62316 53.1580 250.6202 0001786 87.3398 272.7811 15.39614274 8265



Live tracking and technical data element details for STARLINK-32596 (NORAD 62316). STARLINK-32596 can be tracked NOW for your location showing map with azimuth and elevation plus other details from your city location.







IsCatalogInMostPopularTable: catalog: 62316, numindb: 23
Update: records affected: 1



GetName: 62316 STARLINK-32596

Hit Count: updated at: Sun, 18 May 2025 23:54:08 GMT